Regional Weather Roundup
Issued by NWS

Home | Current Version | Previous Version | Graphics & Text | Print | Product List | Glossary On
Versions: 1 2 3 4 5 6 7 8 9 10 11 12 13 14 15 16 17 18 19 20 21 22 23 24 25 26 27 28 29 30 31 32 33 34 35 36 37 38 39 40 41 42 43 44 45 46 47 48 49 50
000
ASUS43 KLSX 201007
RWRMO

WEATHER SUMMARY FOR MISSOURI
NATIONAL WEATHER SERVICE SPRINGFIELD MO
400 AM CST MON FEB 20 2017

NOTE: "FAIR" INDICATES FEW OR NO CLOUDS BELOW 12,000 FEET WITH NO
       SIGNIFICANT WEATHER AND/OR OBSTRUCTIONS TO VISIBILITY.
       CURRENT SKY AND/OR WEATHER CONDITIONS ARE NOT AVAILABLE FOR
       CHILLICOTHE AND FARMINGTON.

MOZ001>031-035>038-043-044-053-054-201100-
...NORTHERN AND WESTERN MISSOURI...

CITY           SKY/WX    TMP DP  RH WIND       PRES   REMARKS
KANSAS CTY INT CLOUDY    63  55  75 S18       29.82F
KANSAS C DTWN  MOCLDY    65  55  70 SE14G22   29.83F
LEE`S SUMMIT   CLOUDY    62  56  80 SE15G24   29.85F
ST JOSEPH      LGT RAIN  62  56  80 SW13      29.84R
CHILLICOTHE      N/A     60  55  83 SE8       29.90S
KIRKSVILLE     MOCLDY    55  52  89 SE10      29.93F

$$
MOZ066>068-077>081-088>096-101>105-201100-
...SOUTHWEST MISSOURI...

CITY           SKY/WX    TMP DP  RH WIND       PRES   REMARKS
SPRINGFIELD    CLOUDY    61  56  83 SE21      29.92F
JOPLIN         PTCLDY    65  53  65 SE10      29.84F
BRANSON        CLOUDY    57  55  94 SE9       29.96F

$$
MOZ032>034-039>042-045>050-055>058-069>072-201100-
...CENTRAL MISSOURI...

CITY           SKY/WX    TMP DP  RH WIND       PRES   REMARKS
COLUMBIA       PTCLDY    59  56  89 SE13      29.95F
JEFFERSON CITY CLOUDY    59  54  83 E10       29.95F
ROLLA          PTCLDY    58  54  86 S10       29.98F
SEDALIA        PTCLDY    63  56  78 SE15G24   29.91F
WHITEMAN AFB   CLOUDY    61  61 100 S13       29.87F
WARRENSBURG    CLOUDY    59  54  82 SE14      29.87F
OSAGE BEACH    CLOUDY    61  55  81 S9        29.96F

$$
MOZ051-052-059>065-201100-
...EAST CENTRAL MISSOURI...

CITY           SKY/WX    TMP DP  RH WIND       PRES   REMARKS
ST LOUIS INTL  MOCLDY    52  49  89 E9        30.04S
SPIRIT OF STL  FOG       44  44 100 CALM      30.03S VSB 1/4
ST CHARLES     PTCLDY    50  50 100 E10       30.04S FOG

$$
MOZ072>076-082>087-097>100-106>115-201100-
...SOUTH CENTRAL AND SOUTHEAST MISSOURI...

CITY           SKY/WX    TMP DP  RH WIND       PRES   REMARKS
CAPE GIRARDEAU PTCLDY    48  46  93 E3        30.07F FOG
FARMINGTON     PTCLDY    53  51  93 S6        30.06F
POPLAR BLUFF   MOCLDY    51  51 100 NE5       30.05S FOG
WEST PLAINS    PTCLDY    56  54  93 SE6       30.03F

$$



USA.gov is the U.S. government's official web portal to all federal, state and local government web resources and services.